Weather History for Savanna, IL

Change the Weather History Date:

Thursday, February 21, 2013

  Actual Average (KCWI) Record (KCWI)
Temperature  
Mean Temperature 20 °F -  
Max Temperature 28 °F 39 °F 59 °F (1991)
Min Temperature 11 °F 21 °F -10 °F (1963)
Degree Days  
Heating Degree Days 46    
Moisture  
Dew Point 18 °F    
Average Humidity 86    
Maximum Humidity 94    
Minimum Humidity 79    
Precipitation  
Precipitation 0.01 in - - ()
Sea Level Pressure  
Sea Level Pressure 30.22 in    
Wind  
Wind Speed 8 mph (ENE)    
Max Wind Speed 23 mph    
Max Gust Speed 29 mph    
Visibility 9 miles    
Events Snow    
Averages and records for this station are not official NWS values.
T = Trace of Precipitation, MM = Missing Value Source: NWS Daily Summary

Daily Weather History Graph

Daily Weather History Graph

Search for Another Location

Airport:

Trip Planner

Search our weather history database for the weather conditions in past years. The results will help you decide how hot, cold, wet, or windy it might be!

Date:

Astronomy

Feb. 21, 2013 Rise Set
Actual Time 6:47 AM CST 5:41 PM CST
Civil Twilight 6:19 AM CST 6:09 PM CST
Nautical Twilight 5:46 AM CST 6:42 PM CST
Astronomical Twilight 5:14 AM CST 7:14 PM CST
Moon 1:53 PM CST (2/21) 3:54 AM CST (2/21)
Length of Visible Light 11h 50m
Length of Day
10h 53m
Waxing Gibbous, 84% of the Moon is Illuminated
Feb 21
Waxing Gibbous
Feb 25
Full
Mar 4
Last Quarter
Mar 11
New
Mar 19
First Quarter

Hourly Weather History & Observations

Time (CST) Temp. Windchill Dew Point Humidity Pressure Visibility Wind Dir Wind Speed Gust Speed Precip Events Conditions
12:15 AM 13.8 °F - 12.2 °F 93% 30.37 in 10.0 mi Calm Calm - N/A   Clear
12:35 AM 14.0 °F - 12.6 °F 94% 30.37 in 10.0 mi Calm Calm - N/A   Clear
12:55 AM 12.4 °F - 10.4 °F 92% 30.37 in 10.0 mi Calm Calm - N/A   Clear
1:15 AM 13.5 °F - 11.5 °F 92% 30.37 in 10.0 mi Calm Calm - N/A   Clear
1:35 AM 13.8 °F - 11.8 °F 92% 30.36 in 10.0 mi Calm Calm - N/A   Clear
1:55 AM 14.7 °F - 12.7 °F 92% 30.37 in 10.0 mi Calm Calm - N/A   Clear
2:15 AM 13.8 °F 8.0 °F 11.5 °F 90% 30.36 in 10.0 mi North 3.5 mph - N/A   Clear
2:35 AM 13.3 °F - 11.1 °F 91% 30.37 in 10.0 mi Calm Calm - N/A   Clear
2:55 AM 13.5 °F - 11.1 °F 90% 30.37 in 10.0 mi Calm Calm - N/A   Clear
3:15 AM 14.0 °F - 11.1 °F 88% 30.38 in 10.0 mi Calm Calm - N/A   Clear
3:35 AM 12.6 °F 6.5 °F 9.7 °F 88% 30.38 in 10.0 mi North 3.5 mph - N/A   Clear
3:55 AM 13.5 °F - 10.4 °F 88% 30.38 in 10.0 mi Calm Calm - N/A   Clear
4:15 AM 13.1 °F 7.1 °F 10.2 °F 88% 30.37 in 10.0 mi North 3.5 mph - N/A   Clear
4:35 AM 11.3 °F 3.3 °F 8.6 °F 89% 30.34 in 10.0 mi NNE 4.6 mph - N/A   Clear
4:55 AM 13.3 °F 2.0 °F 9.9 °F 86% 30.31 in 10.0 mi NNE 8.1 mph - N/A   Clear
5:15 AM 14.0 °F 6.5 °F 9.5 °F 82% 30.34 in 10.0 mi East 4.6 mph - N/A   Clear
5:55 AM 14.0 °F 6.5 °F 9.1 °F 81% 30.36 in 10.0 mi ENE 4.6 mph - N/A   Clear
6:15 AM 14.2 °F 5.3 °F 8.8 °F 79% 30.38 in 10.0 mi ENE 5.8 mph - N/A   Clear
6:35 AM 13.8 °F 3.7 °F 9.1 °F 82% 30.36 in 10.0 mi ENE 6.9 mph - N/A   Clear
6:55 AM 14.4 °F 0.9 °F 9.5 °F 81% 30.35 in 10.0 mi ENE 11.5 mph - N/A   Clear
7:15 AM 14.7 °F 2.1 °F 9.9 °F 81% 30.36 in 10.0 mi ENE 10.4 mph - N/A   Clear
7:35 AM 15.4 °F 2.3 °F 10.8 °F 82% 30.34 in 10.0 mi NE 11.5 mph - N/A   Clear
7:55 AM 16.7 °F 6.2 °F 12.0 °F 82% 30.34 in 10.0 mi NE 8.1 mph - N/A   Clear
8:15 AM 18.1 °F 7.1 °F 13.1 °F 81% 30.35 in 10.0 mi ENE 9.2 mph - N/A   Clear
8:35 AM 18.9 °F 9.8 °F 13.6 °F 80% 30.36 in 10.0 mi East 6.9 mph - N/A   Scattered Clouds
8:55 AM 20.3 °F 12.5 °F 15.1 °F 80% 30.34 in 10.0 mi ENE 5.8 mph - N/A   Mostly Cloudy
9:15 AM 21.2 °F 13.6 °F 16.2 °F 81% 30.36 in 10.0 mi NE 5.8 mph - N/A   Overcast
9:35 AM 21.9 °F 11.7 °F 16.7 °F 80% 30.34 in 10.0 mi ENE 9.2 mph - N/A   Overcast
9:55 AM 22.5 °F 12.4 °F 17.6 °F 82% 30.35 in 10.0 mi East 9.2 mph - N/A   Overcast
10:15 AM 23.0 °F 12.4 °F 18.3 °F 82% 30.34 in 10.0 mi ENE 10.4 mph - N/A   Overcast
10:35 AM 23.5 °F 12.4 °F 18.9 °F 82% 30.32 in 10.0 mi ENE 11.5 mph - N/A   Overcast
10:55 AM 23.9 °F 12.9 °F 19.2 °F 82% 30.32 in 10.0 mi ENE 11.5 mph 17.3 mph N/A   Overcast
11:15 AM 24.3 °F 12.2 °F 19.4 °F 82% 30.32 in 10.0 mi ENE 13.8 mph - N/A   Overcast
11:35 AM 24.8 °F 12.9 °F 20.1 °F 82% 30.30 in 10.0 mi ENE 13.8 mph - N/A   Overcast
11:55 AM 25.5 °F 13.3 °F 20.8 °F 82% 30.27 in 10.0 mi NE 15.0 mph 18.4 mph N/A   Overcast
12:15 PM 25.7 °F 13.5 °F 21.0 °F 82% 30.26 in 10.0 mi NE 15.0 mph 19.6 mph N/A   Overcast
12:35 PM 25.9 °F 14.3 °F 21.2 °F 82% 30.25 in 10.0 mi NE 13.8 mph - N/A   Overcast
12:55 PM 26.4 °F 15.0 °F 21.6 °F 82% 30.23 in 10.0 mi NE 13.8 mph - N/A   Overcast
1:15 PM 26.2 °F 13.4 °F 21.6 °F 82% 30.21 in 10.0 mi NE 17.3 mph 21.9 mph N/A   Overcast
1:35 PM 25.7 °F 14.6 °F 21.2 °F 83% 30.21 in 10.0 mi NNE 12.7 mph 21.9 mph N/A   Overcast
1:55 PM 25.7 °F 14.0 °F 21.6 °F 84% 30.21 in 10.0 mi NE 13.8 mph - N/A   Overcast
2:15 PM 26.2 °F 15.2 °F 21.7 °F 83% 30.21 in 10.0 mi ENE 12.7 mph - N/A   Overcast
2:35 PM 26.6 °F 16.2 °F 21.9 °F 82% 30.21 in 10.0 mi ENE 11.5 mph 18.4 mph N/A   Overcast
2:55 PM 26.6 °F 14.3 °F 22.1 °F 83% 30.20 in 10.0 mi ENE 16.1 mph 20.7 mph N/A   Overcast
3:15 PM 26.6 °F 14.3 °F 22.3 °F 84% 30.18 in 10.0 mi NE 16.1 mph 20.7 mph N/A   Overcast
3:35 PM 26.4 °F 14.5 °F 22.3 °F 84% 30.19 in 10.0 mi ENE 15.0 mph - N/A   Overcast
3:55 PM 26.4 °F 13.6 °F 22.5 °F 85% 30.17 in 10.0 mi NE 17.3 mph - N/A   Overcast
4:15 PM 26.2 °F 13.0 °F 22.6 °F 86% 30.14 in 10.0 mi ENE 18.4 mph - N/A   Overcast
4:35 PM 26.2 °F 13.4 °F 22.6 °F 86% 30.11 in 10.0 mi ENE 17.3 mph 23.0 mph N/A   Overcast
4:55 PM 26.2 °F 13.0 °F 23.0 °F 88% 30.11 in 10.0 mi ENE 18.4 mph 26.5 mph N/A   Overcast
5:15 PM 26.1 °F 13.6 °F 23.0 °F 88% 30.10 in 10.0 mi NE 16.1 mph 25.3 mph N/A   Overcast
5:35 PM 26.1 °F 12.3 °F 23.4 °F 90% 30.09 in 10.0 mi ENE 19.6 mph - N/A   Overcast
5:55 PM 26.2 °F 13.8 °F 23.5 °F 90% 30.10 in 10.0 mi ENE 16.1 mph 23.0 mph N/A   Overcast
6:15 PM 26.2 °F 13.4 °F 23.5 °F 90% 30.08 in 10.0 mi ENE 17.3 mph 23.0 mph N/A   Overcast
6:35 PM 26.2 °F 13.8 °F 23.7 °F 90% 30.07 in 10.0 mi ENE 16.1 mph 23.0 mph N/A   Overcast
6:55 PM 27.1 °F 15.4 °F 24.6 °F 90% 30.06 in 10.0 mi ENE 15.0 mph 18.4 mph N/A   Overcast
7:15 PM 28.2 °F 14.5 °F 25.2 °F 88% 30.04 in 10.0 mi ENE 21.9 mph 27.6 mph N/A   Overcast
7:35 PM 28.4 °F 14.4 °F 24.8 °F 86% 30.03 in 10.0 mi ENE 23.0 mph 28.8 mph N/A   Overcast
7:55 PM 28.0 °F 15.3 °F 24.4 °F 86% 30.03 in 10.0 mi ENE 18.4 mph 25.3 mph N/A   Overcast
8:15 PM 28.0 °F 15.3 °F 23.9 °F 84% 30.02 in 10.0 mi East 18.4 mph 24.2 mph N/A   Overcast
8:35 PM 27.9 °F 14.7 °F 23.7 °F 84% 30.01 in 10.0 mi ENE 19.6 mph 25.3 mph N/A   Overcast
8:55 PM 27.9 °F 15.1 °F 23.5 °F 84% 30.00 in 10.0 mi ENE 18.4 mph 23.0 mph N/A   Overcast
9:15 PM 27.9 °F 14.4 °F 23.5 °F 84% 30.00 in 3.0 mi ENE 20.7 mph 28.8 mph N/A Snow Light Snow
9:35 PM 27.3 °F 14.4 °F 23.9 °F 87% 29.99 in 1.5 mi ENE 18.4 mph 25.3 mph N/A Snow Light Snow
9:55 PM 26.6 °F 14.3 °F 24.8 °F 93% 29.98 in 0.5 mi ENE 16.1 mph 25.3 mph N/A Snow Heavy Snow
10:15 PM 26.4 °F 14.0 °F 24.8 °F 94% 29.96 in 0.8 mi ENE 16.1 mph 24.2 mph N/A Snow Snow
10:35 PM 26.4 °F 15.0 °F 24.8 °F 94% 29.95 in 1.0 mi ENE 13.8 mph 25.3 mph N/A Snow Light Snow
10:55 PM 26.6 °F 14.3 °F 24.8 °F 93% 29.95 in 1.2 mi East 16.1 mph 24.2 mph 0.01 in Snow Light Snow
11:15 PM 26.6 °F 13.8 °F 24.8 °F 93% 29.94 in 1.0 mi ENE 17.3 mph - N/A Snow Light Snow
11:35 PM 26.6 °F 14.7 °F 25.0 °F 94% 29.93 in 1.0 mi East 15.0 mph 21.9 mph N/A Snow Light Snow
11:55 PM 26.6 °F 15.2 °F 25.2 °F 94% 29.93 in 1.0 mi East 13.8 mph 19.6 mph N/A Snow Snow